Location: Vigevano
(45.3170°N, 8.8500°E)
Time: 17:29:28
(UTC+01:00)

ISS - Visible Passes

Search period start: 10 December 2018 00:00
Search period end: 20 December 2018 00:00
Orbit: 401 x 408 km, 51.6° (Epoch: 10 December)

Date Brightness Start Highest point End Pass type
(mag) Time Alt. Az. Time Alt. Az. Time Alt. Az.
10 Dec -3.5 17:29:50 10° NW 17:33:02 49° NNE 17:36:13 10° E visible
10 Dec -1.9 19:06:31 10° WNW 19:09:01 28° SW 19:09:01 28° SW visible
11 Dec -3.1 18:14:09 10° WNW 18:17:21 52° SW 18:19:45 16° SE visible
12 Dec -3.8 17:21:55 10° WNW 17:25:12 90° SSW 17:28:28 10° ESE visible
12 Dec -0.8 18:59:29 10° W 19:01:15 14° SW 19:03:00 10° SSW visible
13 Dec -1.4 18:06:34 10° W 18:09:15 24° SW 18:11:57 10° SSE visible
14 Dec -2.4 17:14:04 10° WNW 17:17:11 42° SW 17:20:17 10° SE visible
15 Dec -0.3 17:59:57 10° WSW 18:00:59 11° SW 18:02:00 10° SSW visible
